Regional Weather Roundup
Issued by NWS

Home | Current Version | Previous Version | Text Only | Print | Product List | Glossary Off
Versions: 1 2 3 4 5 6 7 8 9 10 11 12 13 14 15 16 17 18 19 20 21 22 23 24 25 26 27 28 29 30 31 32 33 34 35 36 37 38 39 40 41 42 43 44 45 46 47 48 49 50

000
ASUS45 KSLC 251510
RWRUT

UTAH REGIONAL WEATHER ROUNDUP
NATIONAL WEATHER SERVICE SALT LAKE CITY UT
900 AM MDT THU MAY 25 2017

UTZ001>011-023>025-251600-

NORTHERN UTAH

CITY           SKY/WX    TMP DP  RH WIND       PRES   REMARKS
BRIGHAM CITY   MOSUNNY   54  35  48 N13       29.73R
DUGWAY         PTSUNNY   60  24  25 N10       29.72R
HILL AFB       MOSUNNY   56  39  52 S7        29.73R
LOGAN          SUNNY     55  39  54 N9        29.73S
OGDEN          PTSUNNY   56  39  53 SW6       29.72R
SALT LAKE CITY PTSUNNY   60  40  47 W5        29.71S
TOOELE VALLEY  CLOUDY    57  32  38 NW7       29.74R
WENDOVER       PTSUNNY   59  29  31 NW9       29.73S
HEBER CITY     MOSUNNY   55  37  50 SE5       29.72F
WEST JORDAN    MOSUNNY   58  46  62 NW8       29.73R

$$

UTZ011>015-024>027-251600-

CENTRAL/NORTHEAST UTAH

CITY           SKY/WX    TMP DP  RH WIND       PRES   REMARKS
PROVO AIRPORT  PTSUNNY   61  39  44 VRB5      29.72S
MOAB/CANYONLAN PTSUNNY   75  25  15 W13       29.58S
DELTA          PTSUNNY   61  30  31 NW8       29.74R
PRICE          PTSUNNY   62  34  35 NW13      29.70R
ROOSEVELT      CLOUDY    59  36  41 W15G22    29.67S
VERNAL         CLOUDY    58  38  47 NE9       29.66R

$$

UTZ013>016-019>022-027-251600-

SOUTHERN UTAH

CITY           SKY/WX    TMP DP  RH WIND       PRES   REMARKS
BRYCE CANYON   SUNNY     62  30  29 SW18G28   29.83R
CEDAR CITY     MOSUNNY   67  33  28 N9        29.75R
MILFORD        PTSUNNY   64  30  27 N17       29.73R
ST GEORGE      MOSUNNY   80  32  17 VRB3      29.61S
HANKSVILLE     CLOUDY    73  28  19 SW6       29.63
BLANDING       MOSUNNY   63  26  25 E5        29.83S

$$

REGIONAL REPORTS     COLORADO/ARIZONA

CITY           SKY/WX    TMP DP  RH WIND       PRES   REMARKS
CRAIG, CO      CLOUDY    50  39  66 W3        29.77R
GRAND JUNCTION MOSUNNY   71  37  28 SE5       29.61R
RIFLE, CO      MOSUNNY   66  37  34 S9        29.65F
MONTROSE, CO   MOSUNNY   70  23  17 SW15G32   29.68F
CORTEZ, CO     SUNNY     68  25  19 S8        29.79R
COLORADO CITY    N/A     73  30  20 CALM      29.76S
PAGE, AZ       SUNNY     77  21  12 SW10G18   29.65S
GRAND CANYON   SUNNY     65  19  17 S5        29.87S
KINGMAN, AZ    SUNNY     78  29  16 SW33G39   29.68S
FLAGSTAFF, AZ  SUNNY     61  21  21 SW22G30   29.93R

$$

REGIONAL REPORTS    NEVADA/IDAHO/WYOMING

CITY           SKY/WX    TMP DP  RH WIND       PRES   REMARKS
LAS VEGAS, NV  MOSUNNY   81  24  12 S13       29.56R
ELY, NY        PTSUNNY   53  34  48 NW9       29.82R
ELKO, NV       MOSUNNY   53  34  48 SW10      29.77S
POCATELLO, ID  SUNNY     47  30  51 SW15      29.78R
BURLEY, ID     SUNNY     48  29  47 W16G25    29.75F
FORT BRIDGER,  CLOUDY    47  39  73 W14       29.79R
EVANSTON, WY   CLOUDY    45  38  76 SW16      29.77S
ROCK SPRINGS,  CLOUDY    44  37  76 W17       29.75R
KEMMERER, WY     N/A     43  34  70 W15       29.76S

$$



USA.gov is the U.S. government's official web portal to all federal, state and local government web resources and services.